[[{"header":{"parameterUnit":"m.s-1","parameterCategory":1,"la1":30.2991,"la2":30.254,"lo1":-89.0895,"lo2":-89.0444,"dy":0.0017,"dx":0.0017,"nx":28,"ny":28,"refTime":"2023-06-19T21:00:00:Z","depth":0,"parameterNumber":2,"parameterNumberName":"U-component_of_WINDS"},"data":[0,0,0,0,0,0,0,0,0,0,0,0,0,0,0,0,0,0,0,0,0,0,0,0,0,0,0,0,0,0,0,0,0,0,0,0,0,0,0,0,0,0,0,0,0,0,0,0,0,0,0,0,0,0,0,0,0,0,3.4796,3.4793,0,3.4486,3.4482,3.4479,3.4386,3.4387,3.4389,3.439,3.4069,3.4059,3.4049,0,0,0,0,0,0,0,0,0,0,0,0,0,3.531,3.5301,3.4797,3.4793,3.4789,3.4486,3.4482,3.4478,3.4385,3.4387,3.4389,3.4391,3.4072,3.4061,3.4049,0,0,0,0,0,0,0,0,0,0,0,0,0,3.5052,3.5298,3.4797,3.4706,3.4695,3.4487,3.4482,3.4477,3.4385,3.4387,3.439,3.4392,3.4076,3.4062,3.4047,3.3906,0,0,3.4001,3.3994,0,0,0,0,0,0,0,0,3.5066,3.5033,3.4724,3.4712,3.4699,3.4477,3.4545,3.4285,3.4384,3.4503,3.439,3.4393,3.4203,3.4177,3.4114,3.3891,3.3877,3.4,3.399,3.3984,3.398,0,0,0,0,0,0,0,3.5084,3.5046,3.4673,3.4719,3.4704,3.4681,3.4647,3.4495,3.4343,3.4493,3.4485,3.445,3.4197,3.4129,3.4106,3.3872,3.4,3.3987,3.3977,3.3971,3.3522,3.3519,0,0,0,0,0,0,3.5118,3.5061,3.4683,3.4664,3.4893,3.467,3.4632,3.4546,3.4344,3.4316,3.4448,3.4447,3.4153,3.4123,3.4094,3.3917,3.3984,3.397,3.3961,3.3525,3.3521,3.3518,0,0,0,0,0,0,3.5129,3.5085,3.4696,3.4861,3.4809,3.4659,3.4563,3.4539,3.447,3.4311,3.4283,3.4407,3.4154,3.4115,3.3954,3.3904,3.3963,3.3949,3.3528,3.3524,3.352,3.3561,0,0,0,0,0,0,3.5144,3.509,3.5034,3.486,3.4801,3.4561,3.456,3.4531,3.4445,3.444,3.4264,3.4238,3.4153,3.3977,3.3939,3.3884,3.3938,3.3532,3.3526,3.3521,3.3563,3.3559,3.3555,0,0,0,0,0,3.5163,3.5057,3.5032,3.4987,3.4728,3.4558,3.4524,3.443,3.4441,3.4384,3.4283,3.4243,3.3917,3.3962,3.3918,3.3858,3.3535,3.3528,3.3522,3.3565,3.3559,3.3555,0,0,0,0,0,0,3.5226,3.5032,3.5002,3.4836,3.4715,3.4543,3.4468,3.4426,3.4298,3.4298,3.4186,3.4147,3.3995,3.3911,3.3964,3.3713,3.3725,3.3709,3.3773,3.3766,3.3762,3.3784,3.3925,0,0,0,0,0,3.5221,3.51,3.4937,3.4806,3.4747,3.4619,3.4541,3.448,3.4349,3.4296,3.4182,3.4057,3.3926,3.3842,3.3712,3.3553,3.3513,3.349,3.3486,3.3483,3.347,3.3381,3.3369,3.3497,3.3497,3.3497,0,0,3.5208,3.5088,3.5017,3.4816,3.4715,3.4592,3.4576,3.4445,3.4353,3.4276,3.4117,3.4031,3.3883,3.3723,3.3646,3.3648,3.3427,3.3475,3.3474,3.3461,3.3373,3.3361,3.3351,3.3492,3.3493,3.3494,0,0,3.5122,3.5019,3.4899,3.48,3.4648,3.4564,3.4536,3.4371,3.4311,3.4151,3.4092,3.3981,3.3758,3.3656,3.3575,3.3457,3.3416,3.3419,3.3394,3.3309,3.3299,3.329,3.3248,3.3234,3.3407,3.3407,3.3407,0,3.5124,3.4937,3.4843,3.4717,3.4631,3.4559,3.4438,3.4345,3.4159,3.4101,3.4106,3.3827,3.3723,3.3539,3.3511,3.3448,3.3413,3.3436,3.3308,3.3298,3.3288,3.3247,3.3231,3.3408,3.3408,3.3408,3.3408,0,3.4948,3.482,3.4742,3.4567,3.4472,3.4349,3.4237,3.4153,3.4102,3.4018,3.3858,3.3731,3.3576,3.3529,3.3476,3.3338,3.3344,3.3331,3.3339,3.3278,3.3238,3.3221,3.341,3.3409,3.3409,3.3409,0,0,3.4886,3.4665,3.4638,3.4559,3.4389,3.4287,3.4164,3.4014,3.3945,3.382,3.3713,3.3529,3.3517,3.3426,3.3362,3.3288,3.3204,3.3283,3.3278,3.3272,3.3046,3.3056,3.3039,3.3178,3.3175,3.3172,3.3058,0,3.4778,3.4552,3.4467,3.4283,3.4164,3.4098,3.399,3.3874,3.3795,3.3683,3.3594,3.3466,3.3459,3.3404,3.3328,3.323,3.3157,3.3238,3.3077,3.3072,3.3113,3.3018,3.3026,3.2925,3.3042,3.3039,3.3037,0,3.4618,3.4495,3.43,3.4149,3.4096,3.4,3.3859,3.3753,3.3622,3.357,3.3471,3.3413,3.3282,3.3303,3.3121,3.3178,3.3108,3.3051,3.3045,3.3024,3.3049,3.2993,3.289,3.2875,3.3011,3.3013,3.3015,0,3.4592,3.4378,3.4234,3.4169,3.3989,3.3924,3.3845,3.3718,3.3635,3.3512,3.3457,3.332,3.3245,3.3141,3.3048,3.3072,3.2876,3.2888,3.2828,3.2831,3.2786,3.279,3.2669,3.2745,3.2746,3.2746,3.2746,0,3.4478,3.4361,3.4221,3.4132,3.4,3.3905,3.3777,3.3695,3.3583,3.3478,3.3413,3.3315,3.32,3.3089,3.3016,3.2878,3.2844,3.2798,3.278,3.2802,3.2808,3.2753,3.2757,3.2742,3.2743,3.2743,3.2744,0,3.4424,3.4325,3.4164,3.401,3.3968,3.3878,3.3745,3.3657,3.3578,3.3446,3.341,3.3284,3.315,3.3049,3.2874,3.2826,3.2678,3.2659,3.2722,3.2712,3.2658,3.2664,3.2495,3.2469,3.2565,3.2564,3.2564,0,3.4356,3.4265,3.4102,3.4028,3.3951,3.3832,3.3749,3.3653,3.3569,3.3417,3.3348,3.321,3.3094,3.2884,3.2777,3.2644,3.2621,3.2572,3.26,3.2628,3.262,3.2626,3.2617,3.2567,3.2566,3.2566,3.2565,0,3.4245,3.4203,3.4085,3.3952,3.3855,3.3745,3.3634,3.3577,3.3462,3.3371,3.3235,3.3146,3.297,3.2835,3.2693,3.2613,3.257,3.2558,3.2537,3.2558,3.2598,3.2576,3.271,3.2561,3.2562,3.2562,3.2562,3.2562,3.418,3.4098,3.3972,3.3844,3.3752,3.3651,3.3562,3.3474,3.3358,3.3209,3.316,3.302,3.2896,3.2701,3.2621,3.2511,3.251,3.2479,3.2471,3.2465,3.2467,3.2619,3.2484,3.2484,3.2484,3.2484,3.2484,0,3.4066,3.3983,3.3868,3.3716,3.3617,3.3589,3.3467,3.3385,3.3263,3.3152,3.3041,3.2886,3.2756,3.2642,3.2507,3.2441,3.2418,3.2409,3.2411,3.2394,3.2475,3.2506,3.2429,3.243,3.243,3.243,3.243,3.243,3.3994,3.3854,3.3798,3.3612,3.353,3.3393,3.3325,3.3233,3.3144,3.2975,3.2867,3.2795,3.2683,3.2541,3.2421,3.2391,3.2344,3.2339,3.2305,3.2381,3.2388,3.2394,3.2423,3.233,3.233,3.2233,3.2232,3.2231]},{"header":{"parameterUnit":"m.s-1","parameterCategory":1,"la1":30.2991,"la2":30.254,"lo1":-89.0895,"lo2":-89.0444,"dy":0.0017,"dx":0.0017,"nx":28,"ny":28,"refTime":"2023-06-19T21:00:00:Z","depth":0,"parameterNumber":3,"parameterNumberName":"V-component_of_WINDS"},"data":[0,0,0,0,0,0,0,0,0,0,0,0,0,0,0,0,0,0,0,0,0,0,0,0,0,0,0,0,0,0,0,0,0,0,0,0,0,0,0,0,0,0,0,0,0,0,0,0,0,0,0,0,0,0,0,0,0,0,2.3032,2.3035,0,2.3235,2.3237,2.3239,2.3308,2.3307,2.3306,2.3305,2.3514,2.3521,2.3527,0,0,0,0,0,0,0,0,0,0,0,0,0,2.2707,2.2713,2.3032,2.3035,2.3037,2.3234,2.3237,2.324,2.3308,2.3307,2.3306,2.3305,2.3512,2.352,2.3527,0,0,0,0,0,0,0,0,0,0,0,0,0,2.2873,2.2715,2.3032,2.3095,2.3102,2.3234,2.3237,2.3241,2.3308,2.3307,2.3305,2.3304,2.351,2.3519,2.3529,2.3613,0,0,2.3558,2.3562,0,0,0,0,0,0,0,0,2.2863,2.2885,2.3083,2.3091,2.31,2.3245,2.3199,2.3365,2.3308,2.323,2.3305,2.3304,2.3426,2.3442,2.3483,2.3622,2.3631,2.3559,2.3564,2.3568,2.3571,0,0,0,0,0,0,0,2.2852,2.2876,2.3112,2.3086,2.3096,2.3114,2.3136,2.3231,2.3333,2.3237,2.3242,2.3265,2.343,2.3474,2.3488,2.3634,2.3558,2.3567,2.3573,2.3576,2.3855,2.3856,0,0,0,0,0,0,2.2829,2.2866,2.3106,2.3119,2.2976,2.3121,2.3146,2.3199,2.3332,2.3351,2.3266,2.3267,2.3458,2.3477,2.3496,2.3604,2.3568,2.3577,2.3583,2.3853,2.3855,2.3857,0,0,0,0,0,0,2.2822,2.285,2.3098,2.2994,2.3027,2.3128,2.3188,2.3204,2.3248,2.3354,2.3372,2.3292,2.3458,2.3483,2.3583,2.3612,2.3582,2.359,2.3851,2.3854,2.3856,2.3819,0,0,0,0,0,0,2.2812,2.2847,2.2879,2.2994,2.3032,2.3181,2.3189,2.3209,2.3264,2.3268,2.3383,2.3401,2.3459,2.3569,2.3593,2.3625,2.3598,2.3849,2.3852,2.3855,2.3818,2.382,2.3822,0,0,0,0,0,2.2801,2.2861,2.288,2.2909,2.3074,2.3182,2.3204,2.3269,2.3265,2.3299,2.3368,2.3397,2.3605,2.3578,2.3606,2.3641,2.3847,2.3851,2.3855,2.3818,2.382,2.3822,0,0,0,0,0,0,2.2747,2.2877,2.29,2.2999,2.3079,2.3193,2.3238,2.3269,2.3352,2.3352,2.343,2.3455,2.355,2.3606,2.3574,2.373,2.3728,2.3737,2.369,2.3693,2.3695,2.3679,2.3606,0,0,0,0,0,2.2746,2.2822,2.2932,2.3009,2.3048,2.3136,2.3185,2.3228,2.3314,2.3349,2.3425,2.3508,2.3592,2.3646,2.3729,2.3827,2.3854,2.3865,2.3867,2.3868,2.3875,2.3932,2.3939,2.3869,2.3869,2.3869,0,0,2.2746,2.2827,2.287,2.3001,2.3067,2.3145,2.3164,2.3245,2.3304,2.3361,2.3461,2.352,2.3618,2.3717,2.3765,2.3767,2.39,2.3873,2.3872,2.388,2.3937,2.3943,2.3949,2.3872,2.3871,2.3871,0,0,2.2786,2.2854,2.2926,2.2993,2.3094,2.3153,2.317,2.328,2.3321,2.3422,2.3467,2.3539,2.3682,2.3751,2.3804,2.3871,2.3902,2.3896,2.3905,2.396,2.3966,2.3971,2.3996,2.4004,2.3903,2.3903,2.3903,0,2.2773,2.2891,2.2959,2.3039,2.3095,2.3151,2.3225,2.3287,2.341,2.3448,2.3448,2.363,2.37,2.3817,2.3834,2.3875,2.3898,2.3883,2.3959,2.3965,2.3971,2.3996,2.4005,2.3902,2.3902,2.3902,2.3902,0,2.2871,2.2952,2.2999,2.3116,2.3178,2.3254,2.3335,2.3389,2.3428,2.3486,2.359,2.3676,2.3778,2.3809,2.3847,2.3932,2.393,2.3944,2.3943,2.3975,2.4,2.401,2.39,2.3901,2.3901,2.3901,0,0,2.2881,2.3036,2.3052,2.3106,2.3223,2.3287,2.3367,2.3467,2.3512,2.3596,2.3665,2.3786,2.38,2.386,2.3907,2.3955,2.4004,2.3964,2.3967,2.3969,2.4105,2.4094,2.4104,2.4026,2.4028,2.4029,2.4097,0,2.2936,2.3079,2.3143,2.3258,2.3335,2.339,2.346,2.3539,2.3596,2.3671,2.3735,2.3819,2.3831,2.3868,2.3918,2.3988,2.4033,2.3984,2.4092,2.4095,2.4065,2.4116,2.4105,2.4164,2.4107,2.4108,2.411,0,2.3018,2.3102,2.3224,2.3332,2.3367,2.3428,2.3526,2.3596,2.3688,2.3727,2.3795,2.384,2.3927,2.392,2.4042,2.4007,2.4056,2.4097,2.4101,2.4114,2.4104,2.413,2.4185,2.4194,2.4125,2.4124,2.4123,0,2.3013,2.3156,2.3249,2.3293,2.3422,2.3464,2.352,2.3611,2.3667,2.3753,2.3791,2.3885,2.3937,2.401,2.408,2.4069,2.4196,2.4195,2.4232,2.423,2.4256,2.4253,2.4318,2.4286,2.4286,2.4286,2.4286,0,2.3067,2.3139,2.3248,2.3304,2.3388,2.3463,2.3544,2.3604,2.3685,2.3755,2.3809,2.3874,2.3963,2.4039,2.4095,2.4188,2.4211,2.4246,2.426,2.4241,2.4237,2.4274,2.4272,2.4288,2.4288,2.4287,2.4287,0,2.3075,2.315,2.3254,2.3368,2.3399,2.3456,2.3554,2.3612,2.3672,2.3761,2.3786,2.3881,2.3975,2.4052,2.4174,2.4212,2.4309,2.4325,2.4278,2.4285,2.4318,2.4314,2.4409,2.4426,2.4382,2.4382,2.4382,0,2.3104,2.3161,2.3282,2.3332,2.3388,2.3468,2.3527,2.3603,2.3661,2.3772,2.3816,2.3914,2.3995,2.4142,2.4223,2.4318,2.4337,2.4364,2.4351,2.4331,2.4338,2.4334,2.4341,2.4365,2.4365,2.4365,2.4365,0,2.3148,2.3183,2.3264,2.3359,2.3427,2.3505,2.3585,2.3624,2.3715,2.3778,2.3874,2.3937,2.4063,2.4159,2.4263,2.4322,2.4359,2.4368,2.4382,2.4364,2.4334,2.4351,2.4281,2.4366,2.4366,2.4366,2.4365,2.4365,2.3168,2.3222,2.3315,2.3405,2.3473,2.3547,2.3607,2.3676,2.3757,2.3865,2.3905,2.4004,2.4097,2.424,2.43,2.4379,2.4383,2.4403,2.4408,2.4412,2.4409,2.4321,2.4398,2.4398,2.4398,2.4398,2.4398,0,2.3215,2.3278,2.3359,2.347,2.3541,2.3569,2.366,2.3717,2.3803,2.3887,2.3966,2.4078,2.4172,2.4261,2.436,2.4407,2.4426,2.443,2.4428,2.4441,2.4399,2.4378,2.4413,2.4413,2.4413,2.4413,2.4413,2.4413,2.3247,2.3341,2.3387,2.3516,2.358,2.3676,2.3726,2.3795,2.3862,2.3984,2.4062,2.412,2.4206,2.4312,2.4401,2.4425,2.4459,2.4459,2.4487,2.4446,2.4444,2.4441,2.4422,2.4465,2.4465,2.4523,2.4523,2.4524]}]]